This demonstration page uses our WeatherBlox Daily Observations layout. Learn more.

Left ArrowRight Arrow

39.12711, -84.51439

Hourly Observations for July 7, 2017

Temp ( °F °C ) Dew Point ( °F °C ) Humidity (%) Winds ( mph kmh ) Pressure ( in mb ) Visibility ( mi km ) Precip ( " mm )
12:13 am 00:13 Mostly Clear with Mist and Fog 67 19.4 67 19.4 100 100 S 6 9 29.94 1014 1 2 N/A
12:18 am 00:18 Mostly Clear with Mist and Fog 68 20 68 20 100 100 SSE 3 6 29.94 1014 3 5 N/A
12:53 am 00:53 Clear with Mist and Fog 67 19.4 67 19.4 100 100 SSW 3 6 29.96 1015 5 8 N/A
1:53 am 01:53 Clear with Mist and Fog 67 19.4 67 19.4 100 100 N N/A 29.98 1015 3 5 N/A
2:09 am 02:09 Clear with Mist and Fog 66 18.9 66 18.9 100 100 N N/A 29.97 1015 1 2 N/A
2:14 am 02:14 Mostly Cloudy with Fog 66 18.9 66 18.9 100 100 N N/A 29.97 1015 0 0 N/A
2:45 am 02:45 Mostly Cloudy with Fog 66 18.9 66 18.9 100 100 N N/A 29.97 1015 1 1 N/A
2:53 am 02:53 Mostly Cloudy with Fog 66 18.9 66 18.9 100 100 N N/A 29.98 1015 0 0 N/A
3:21 am 03:21 Cloudy with Mist and Fog 67 19.4 66 18.9 97 97 S 5 7 29.97 1015 1 2 N/A
3:28 am 03:28 Cloudy with Mist and Fog 68 20 67 19.4 96 96 SSW 5 7 29.94 1014 3 5 N/A
3:36 am 03:36 Cloudy with Mist and Fog 68 20 68 20 100 100 S 3 6 29.94 1014 4 6 N/A
3:53 am 03:53 Cloudy with Mist and Fog 68 20 68 20 100 100 S 6 9 29.97 1015 3 5 N/A
4:13 am 04:13 Cloudy with Mist and Fog 68 20 68 20 100 100 SSW 3 6 29.94 1014 3 4 N/A
4:46 am 04:46 Mostly Cloudy with Mist and Fog 67 19.4 67 19.4 100 100 SSW 5 7 29.94 1014 3 5 N/A
4:53 am 04:53 Mostly Cloudy with Mist and Fog 67 19.4 67 19.4 100 100 SSW 6 9 29.96 1015 3 5 N/A
5:42 am 05:42 Mostly Cloudy with Mist and Fog 68 20 68 20 100 100 SSW 6 9 29.94 1014 6 10 N/A
5:53 am 05:53 Mostly Cloudy with Mist and Fog 68 20 68 20 100 100 S 6 9 29.96 1015 6 10 N/A
6:01 am 06:01 Partly Cloudy with Mist and Fog 68 20 68 20 100 100 S 6 9 29.94 1014 6 10 N/A
6:53 am 06:53 Mostly Sunny 67 19.4 67 19.4 100 100 SSW 5 7 29.98 1015 10 16 N/A
7:53 am 07:53 Sunny 71 21.7 70 21.1 96 96 SSW 6 9 29.98 1015 10 16 N/A
8:53 am 08:53 Sunny 74 23.3 71 21.7 91 91 S 7 11 29.97 1015 10 16 N/A
9:53 am 09:53 Sunny 78 25.6 73 22.8 85 85 S 7 11 29.97 1015 10 16 N/A
10:21 am 10:21 Sunny 80 26.7 74 23.3 82 82 SW 9 15 29.94 1014 10 16 N/A
10:53 am 10:53 Sunny 81 27.2 74 23.3 79 79 SW 9 15 29.96 1014 10 16 N/A
11:53 am 11:53 Partly Cloudy 84 28.9 74 23.3 72 72 SW 6 9 29.95 1014 10 16 N/A
12:53 pm 12:53 Partly Cloudy 86 30 74 23.3 67 67 SW 13 20 29.93 1014 10 16 N/A
1:53 pm 13:53 Mostly Sunny 88 31.1 73 22.8 61 61 WSW 15 24 29.91 1013 10 16 N/A
2:53 pm 14:53 Mostly Sunny 88 31.1 71 21.7 57 57 WSW 16 26 29.89 1012 10 16 N/A
3:53 pm 15:53 Mostly Cloudy 89 31.7 72 22.2 57 57 SW 13 20 29.86 1011 10 16 N/A
4:53 pm 16:53 Partly Cloudy 86 30 70 21.1 59 59 SSW 15 24 29.84 1011 10 16 N/A
5:53 pm 17:53 Mostly Cloudy 85 29.4 71 21.7 63 63 SW 13 20 29.84 1011 10 16 N/A
6:16 pm 18:16 Mostly Cloudy with Nearby Thunderstorms 85 29.4 69 20.6 59 59 W 14 22 29.88 1012 10 16 N/A
6:24 pm 18:24 Windy with Storms Likely 76 24.4 65 18.3 69 69 N 30 48 29.91 1013 10 16 N/A
6:32 pm 18:32 Cloudy with Thunderstorms 69 20.6 66 18.9 90 90 NNE 17 28 29.91 1013 2 3 0.18 4.57
6:53 pm 18:53 Cloudy with Strong Thunderstorms 67 19.4 65 18.3 93 93 NE 15 24 29.94 1014 3 5 0.59 14.99
7:25 pm 19:25 Cloudy with Light Rain 67 19.4 65 18.3 93 93 N N/A 29.91 1013 10 16 0.03 0.76
7:32 pm 19:32 Mostly Cloudy with Thunderstorms 66 18.9 66 18.9 100 100 WSW 5 7 29.94 1014 4 6 0.05 1.27
7:53 pm 19:53 Cloudy with Light Rain 66 18.9 66 18.9 100 100 S 5 7 29.93 1014 7 11 0.12 3.05
8:53 pm 20:53 Partly Cloudy with Light Rain 66 19 N/A N/A S 15 24 29.81 1010 10 16 0.04 1.02
9:53 pm 21:53 Clear 66 18.9 64 17.8 93 93 ESE 3 6 29.87 1012 10 16 N/A
10:59 pm 22:59 Clear 66 19 64 18 94 94 N N/A 29.91 1013 10 16 N/A
11:53 pm 23:53 Partly Cloudy 64 18 N/A N/A S 3 6 29.91 1013 9 14 N/A

Powered by AerisWeather